RISAT 1

Last updated on Thu Apr 18 2024 00:02:30 GMT+0000 (Coordinated Universal Time)

1 38248U 12017A 24108.58132408 .00018791 00000+0 81756-3 0 9997 2 38248 97.5288 125.8287 0005071 98.7820 261.3991 15.22285899660358

Satellite not in orbit

RISAT 1